Voltar ao catálogo

CHECKMATE 1

AtivoMilitarPO
NORAD 56168·PAYLOAD·🇺🇸 United States

Lançado Apr 2, 2023 de Vandenberg Space Force Base

Loading…

Próximas Passagens (próximas 24 horas)

TLE

AtualizadoSource: Space-Track

Época: Sep 14, 2026, 04:36 UTC

1 56168U 23050G   26257.19213473  .00000068  00000-0  50350-4 0  9999
2 56168  81.0080 346.6181 0012260 107.8795 252.3700 13.84958852174411

Acompanhe CHECKMATE 1 em tempo real com AllMySat

Download on the App Store